| time (UTC) | temp F | wind direction | speed MPH | gust MPH | rain 1hr in | rain 24hr in | rain mn in | humidity % | barometer mb |
| 20260504034554 | 75 | 160 | 0.0 | 3.0 | 0.00 | 0.00 | 0.00 | 61 | 1014.7 |
| 20260504034043 | 75 | 172 | 1.0 | 3.0 | 0.00 | 0.00 | 0.00 | 61 | 1014.6 |
| 20260504033542 | 75 | 156 | 1.0 | 4.0 | 0.00 | 0.00 | 0.00 | 60 | 1014.6 |
| 20260504033054 | 75 | 241 | 1.0 | 6.0 | 0.00 | 0.00 | 0.00 | 61 | 1014.6 |
| 20260504032544 | 75 | 223 | 2.0 | 7.0 | 0.00 | 0.00 | 0.00 | 60 | 1014.7 |
| 20260504032041 | 76 | 240 | 2.0 | 7.0 | 0.00 | 0.00 | 0.00 | 61 | 1014.8 |
| 20260504031556 | 76 | 224 | 0.0 | 8.0 | 0.00 | 0.00 | 0.00 | 61 | 1014.8 |
| 20260504031039 | 76 | 208 | 3.0 | 8.0 | 0.00 | 0.00 | 0.00 | 60 | 1014.9 |
| 20260504030538 | 76 | 215 | 2.0 | 6.0 | 0.00 | 0.00 | 0.00 | 60 | 1015.0 |
| 20260504030045 | 76 | 192 | 2.0 | 7.0 | 0.00 | 0.00 | 0.00 | 60 | 1015.1 |
| 20260504025538 | 76 | 235 | 2.0 | 6.0 | 0.00 | 0.00 | 0.00 | 59 | 1015.1 |
| 20260504025038 | 76 | 186 | 3.0 | 7.0 | 0.00 | 0.00 | 0.00 | 58 | 1015.1 |
| 20260504024543 | 76 | 277 | 1.0 | 7.0 | 0.00 | 0.00 | 0.00 | 58 | 1015.3 |
| 20260504024037 | 76 | 232 | 1.0 | 8.0 | 0.00 | 0.00 | 0.00 | 57 | 1015.3 |
| 20260504023537 | 77 | 244 | 2.0 | 8.0 | 0.00 | 0.00 | 0.00 | 57 | 1015.2 |
| 20260504023039 | 77 | 221 | 2.0 | 9.0 | 0.00 | 0.00 | 0.00 | 57 | 1015.3 |
| 20260504022537 | 77 | 245 | 4.0 | 9.0 | 0.00 | 0.00 | 0.00 | 56 | 1015.4 |
| 20260504022035 | 77 | 253 | 2.0 | 5.0 | 0.00 | 0.00 | 0.00 | 57 | 1015.5 |
| 20260504021536 | 78 | 278 | 2.0 | 7.0 | 0.00 | 0.00 | 0.00 | 56 | 1015.6 |
| 20260504021034 | 78 | 234 | 2.0 | 7.0 | 0.00 | 0.00 | 0.00 | 58 | 1015.7 |
| 20260504020532 | 77 | 288 | 3.0 | 5.0 | 0.00 | 0.00 | 0.00 | 57 | 1015.8 |
| 20260504020031 | 76 | 301 | 2.0 | 5.0 | 0.00 | 0.00 | 0.00 | 60 | 1015.9 |
| 20260504015530 | 76 | 286 | 1.0 | 5.0 | 0.00 | 0.00 | 0.00 | 59 | 1016.1 |
| 20260504015033 | 76 | 288 | 2.0 | 5.0 | 0.00 | 0.00 | 0.00 | 58 | 1016.1 |
| 20260504014528 | 76 | 330 | 1.0 | 5.0 | 0.00 | 0.00 | 0.00 | 59 | 1016.2 |
| 20260504014030 | 76 | 299 | 2.0 | 8.0 | 0.00 | 0.00 | 0.00 | 60 | 1016.3 |
| 20260504013527 | 75 | 282 | 3.0 | 8.0 | 0.00 | 0.00 | 0.00 | 59 | 1016.4 |
| 20260504013035 | 76 | 279 | 2.0 | 6.0 | 0.00 | 0.00 | 0.00 | 59 | 1016.4 |
| 20260504012526 | 76 | 291 | 0.0 | 4.0 | 0.00 | 0.00 | 0.00 | 61 | 1016.4 |
| 20260504012025 | 76 | 273 | 2.0 | 4.0 | 0.00 | 0.00 | 0.00 | 60 | 1016.5 |
| 20260504011525 | 75 | 290 | 0.0 | 4.0 | 0.00 | 0.00 | 0.00 | 61 | 1016.5 |
| 20260504011025 | 75 | 263 | 1.0 | 8.0 | 0.00 | 0.00 | 0.00 | 61 | 1016.5 |
| 20260504010522 | 74 | 271 | 3.0 | 8.0 | 0.00 | 0.00 | 0.00 | 60 | 1016.6 |
| 20260504010021 | 74 | 322 | 2.0 | 8.0 | 0.00 | 0.00 | 0.00 | 60 | 1016.5 |
| 20260504005519 | 74 | 292 | 2.0 | 9.0 | 0.00 | 0.00 | 0.00 | 61 | 1016.5 |
| 20260504005020 | 74 | 273 | 4.0 | 9.0 | 0.00 | 0.00 | 0.00 | 61 | 1016.6 |
| 20260504004519 | 74 | 256 | 2.0 | 7.0 | 0.00 | 0.00 | 0.00 | 62 | 1016.5 |
| 20260504004017 | 74 | 62 | 2.0 | 7.0 | 0.00 | 0.00 | 0.00 | 65 | 1016.6 |
| 20260504003514 | 73 | 316 | 3.0 | 8.0 | 0.00 | 0.00 | 0.00 | 66 | 1016.7 |
| 20260504003026 | 73 | 238 | 4.0 | 10.0 | 0.00 | 0.00 | 0.00 | 67 | 1016.7 |
| 20260504002512 | 72 | 302 | 3.0 | 10.0 | 0.00 | 0.00 | 0.00 | 66 | 1016.8 |
| 20260504002011 | 72 | 324 | 2.0 | 6.0 | 0.00 | 0.00 | 0.00 | 68 | 1016.8 |
| 20260504001509 | 72 | 274 | 1.0 | 8.0 | 0.00 | 0.00 | 0.00 | 69 | 1016.8 |
| 20260504001009 | 72 | 325 | 4.0 | 8.0 | 0.00 | 0.00 | 0.00 | 69 | 1016.8 |
| 20260504000507 | 72 | 290 | 1.0 | 5.0 | 0.00 | 0.00 | 0.00 | 70 | 1016.8 |
| 20260504000006 | 71 | 268 | 2.0 | 8.0 | 0.00 | 0.00 | 0.00 | 71 | 1016.8 |
| 20260503235504 | 71 | 250 | 3.0 | 8.0 | 0.00 | 0.00 | 0.00 | 71 | 1016.8 |
| 20260503235003 | 70 | 300 | 3.0 | 8.0 | 0.00 | 0.00 | 0.00 | 72 | 1016.8 |
| 20260503234502 | 70 | 284 | 2.0 | 8.0 | 0.00 | 0.00 | 0.00 | 74 | 1016.9 |
| 20260503234101 | 70 | 13 | 4.0 | 8.0 | 0.00 | 0.00 | 0.00 | 74 | 1016.9 |
| 20260503233600 | 69 | 284 | 3.0 | 8.0 | 0.00 | 0.00 | 0.00 | 75 | 1017.0 |
| 20260503233100 | 69 | 299 | 4.0 | 7.0 | 0.00 | 0.00 | 0.00 | 76 | 1017.0 |
| 20260503232558 | 69 | 266 | 3.0 | 9.0 | 0.00 | 0.00 | 0.00 | 76 | 1017.0 |
| 20260503232058 | 69 | 277 | 3.0 | 9.0 | 0.00 | 0.00 | 0.00 | 76 | 1017.0 |
| 20260503231556 | 68 | 296 | 3.0 | 6.0 | 0.00 | 0.00 | 0.00 | 78 | 1017.0 |
| 20260503231055 | 68 | 296 | 3.0 | 7.0 | 0.00 | 0.00 | 0.00 | 78 | 1017.0 |
| 20260503230553 | 68 | 268 | 3.0 | 9.0 | 0.00 | 0.00 | 0.00 | 79 | 1016.9 |
| 20260503230055 | 67 | 286 | 2.0 | 9.0 | 0.00 | 0.00 | 0.00 | 80 | 1016.9 |
| 20260503225551 | 67 | 291 | 3.0 | 9.0 | 0.00 | 0.00 | 0.00 | 81 | 1016.9 |
| 20260503225051 | 67 | 311 | 6.0 | 9.0 | 0.00 | 0.00 | 0.00 | 81 | 1016.9 |
| 20260503224552 | 67 | 278 | 4.0 | 8.0 | 0.00 | 0.00 | 0.00 | 81 | 1016.9 |
| 20260503224049 | 66 | 301 | 4.0 | 8.0 | 0.00 | 0.00 | 0.00 | 82 | 1016.9 |
| 20260503223548 | 66 | 340 | 4.0 | 9.0 | 0.00 | 0.00 | 0.00 | 83 | 1016.9 |
| 20260503223048 | 66 | 300 | 3.0 | 9.0 | 0.00 | 0.00 | 0.00 | 84 | 1016.9 |
| 20260503222548 | 65 | 309 | 3.0 | 8.0 | 0.00 | 0.00 | 0.00 | 85 | 1016.9 |
| 20260503222047 | 65 | 282 | 1.0 | 8.0 | 0.00 | 0.00 | 0.00 | 86 | 1016.9 |
| 20260503221547 | 64 | 328 | 2.0 | 8.0 | 0.00 | 0.00 | 0.00 | 87 | 1016.9 |
| 20260503221047 | 64 | 303 | 2.0 | 9.0 | 0.00 | 0.00 | 0.00 | 88 | 1016.9 |
| 20260503220548 | 63 | 290 | 2.0 | 6.0 | 0.00 | 0.00 | 0.00 | 89 | 1016.9 |
| 20260503220048 | 63 | 299 | 2.0 | 6.0 | 0.00 | 0.00 | 0.00 | 89 | 1016.8 |
| 20260503215547 | 63 | 300 | 2.0 | 5.0 | 0.00 | 0.00 | 0.00 | 90 | 1016.9 |
| 20260503215046 | 62 | 284 | 2.0 | 5.0 | 0.00 | 0.00 | 0.00 | 90 | 1016.9 |
| 20260503214546 | 62 | 334 | 2.0 | 4.0 | 0.00 | 0.00 | 0.00 | 91 | 1016.8 |
| 20260503214046 | 62 | 304 | 1.0 | 4.0 | 0.00 | 0.00 | 0.00 | 91 | 1016.8 |
| 20260503213546 | 61 | 5 | 2.0 | 5.0 | 0.00 | 0.00 | 0.00 | 92 | 1016.7 |
| 20260503213047 | 61 | 331 | 2.0 | 5.0 | 0.00 | 0.00 | 0.00 | 92 | 1016.6 |
| 20260503212545 | 61 | 327 | 0.0 | 1.0 | 0.00 | 0.00 | 0.00 | 91 | 1016.6 |
| 20260503212043 | 61 | 327 | 0.0 | 1.0 | 0.00 | 0.00 | 0.00 | 91 | 1016.5 |
| 20260503211543 | 61 | 39 | 0.0 | 3.0 | 0.00 | 0.00 | 0.00 | 90 | 1016.5 |
| 20260503211042 | 61 | 39 | 0.0 | 3.0 | 0.00 | 0.00 | 0.00 | 90 | 1016.5 |
| 20260503210541 | 61 | 317 | 0.0 | 2.0 | 0.00 | 0.00 | 0.00 | 90 | 1016.3 |
| 20260503210039 | 61 | 317 | 0.0 | 2.0 | 0.00 | 0.00 | 0.00 | 90 | 1016.2 |
| 20260503205538 | 61 | 317 | 0.0 | 3.0 | 0.00 | 0.00 | 0.00 | 90 | 1016.2 |
| 20260503205040 | 61 | 317 | 1.0 | 4.0 | 0.00 | 0.00 | 0.00 | 90 | 1016.2 |
| 20260503204535 | 61 | 337 | 0.0 | 4.0 | 0.00 | 0.00 | 0.00 | 89 | 1016.1 |
| 20260503204033 | 62 | 338 | 0.0 | 3.0 | 0.00 | 0.00 | 0.00 | 89 | 1016.0 |
| 20260503203534 | 62 | 282 | 1.0 | 3.0 | 0.00 | 0.00 | 0.00 | 89 | 1016.0 |
| 20260503203036 | 62 | 311 | 0.0 | 4.0 | 0.00 | 0.00 | 0.00 | 89 | 1015.9 |
| 20260503202532 | 62 | 355 | 0.0 | 4.0 | 0.00 | 0.00 | 0.00 | 89 | 1015.7 |
| 20260503202034 | 62 | 333 | 1.0 | 5.0 | 0.00 | 0.00 | 0.00 | 89 | 1015.7 |
| 20260503201529 | 62 | 319 | 1.0 | 5.0 | 0.00 | 0.00 | 0.00 | 89 | 1015.7 |
| 20260503201029 | 62 | 305 | 0.0 | 5.0 | 0.00 | 0.00 | 0.00 | 89 | 1015.6 |
| 20260503200531 | 62 | 297 | 1.0 | 5.0 | 0.00 | 0.00 | 0.00 | 89 | 1015.6 |
| 20260503200028 | 62 | 331 | 1.0 | 5.0 | 0.00 | 0.00 | 0.00 | 88 | 1015.6 |
| 20260503195527 | 62 | 325 | 2.0 | 5.0 | 0.00 | 0.00 | 0.00 | 88 | 1015.6 |
| 20260503195026 | 62 | 328 | 1.0 | 4.0 | 0.00 | 0.00 | 0.00 | 88 | 1015.6 |
| 20260503194527 | 63 | 355 | 0.0 | 4.0 | 0.00 | 0.00 | 0.00 | 88 | 1015.5 |
| 20260503194026 | 63 | 348 | 1.0 | 4.0 | 0.00 | 0.00 | 0.00 | 88 | 1015.4 |
| 20260503193527 | 63 | 316 | 1.0 | 4.0 | 0.00 | 0.00 | 0.00 | 88 | 1015.3 |
| 20260503193025 | 63 | 355 | 1.0 | 4.0 | 0.00 | 0.00 | 0.00 | 88 | 1015.2 |
| 20260503192524 | 63 | 321 | 1.0 | 4.0 | 0.00 | 0.00 | 0.00 | 88 | 1015.2 |
| 20260503192029 | 63 | 330 | 1.0 | 4.0 | 0.00 | 0.00 | 0.00 | 88 | 1015.1 |
| 20260503191524 | 63 | 326 | 1.0 | 4.0 | 0.00 | 0.00 | 0.00 | 88 | 1015.1 |
| 20260503191024 | 63 | 321 | 2.0 | 4.0 | 0.00 | 0.00 | 0.00 | 88 | 1015.1 |
| 20260503190524 | 63 | 346 | 2.0 | 5.0 | 0.00 | 0.00 | 0.00 | 88 | 1015.1 |
| 20260503190025 | 63 | 313 | 2.0 | 7.0 | 0.00 | 0.00 | 0.00 | 87 | 1015.2 |
| 20260503185524 | 63 | 293 | 2.0 | 7.0 | 0.00 | 0.00 | 0.00 | 88 | 1015.2 |
| 20260503185022 | 63 | 324 | 2.0 | 6.0 | 0.00 | 0.00 | 0.00 | 87 | 1015.1 |
| 20260503184522 | 63 | 324 | 2.0 | 6.0 | 0.00 | 0.00 | 0.00 | 87 | 1015.2 |
| 20260503184021 | 63 | 333 | 2.0 | 5.0 | 0.00 | 0.00 | 0.00 | 87 | 1015.3 |
| 20260503183521 | 64 | 284 | 2.0 | 5.0 | 0.00 | 0.00 | 0.00 | 86 | 1015.3 |
| 20260503183024 | 64 | 309 | 2.0 | 6.0 | 0.00 | 0.00 | 0.00 | 86 | 1015.2 |
| 20260503182520 | 64 | 299 | 2.0 | 8.0 | 0.00 | 0.00 | 0.00 | 86 | 1015.2 |
| 20260503182021 | 64 | 281 | 3.0 | 8.0 | 0.00 | 0.00 | 0.00 | 87 | 1015.1 |
| 20260503181520 | 63 | 277 | 3.0 | 6.0 | 0.00 | 0.00 | 0.00 | 87 | 1015.1 |
| 20260503181022 | 63 | 340 | 3.0 | 8.0 | 0.00 | 0.00 | 0.00 | 88 | 1015.2 |
| 20260503180519 | 63 | 297 | 2.0 | 7.0 | 0.00 | 0.00 | 0.00 | 88 | 1015.1 |
| 20260503180018 | 63 | 286 | 2.0 | 6.0 | 0.00 | 0.00 | 0.00 | 87 | 1015.1 |
| 20260503175517 | 63 | 275 | 2.0 | 6.0 | 0.00 | 0.00 | 0.00 | 87 | 1015.1 |
| 20260503175016 | 63 | 288 | 2.0 | 7.0 | 0.00 | 0.00 | 0.00 | 87 | 1015.2 |
| 20260503174519 | 64 | 317 | 3.0 | 8.0 | 0.00 | 0.00 | 0.00 | 87 | 1015.2 |
| 20260503174019 | 64 | 282 | 3.0 | 8.0 | 0.00 | 0.00 | 0.00 | 87 | 1015.2 |
| 20260503173515 | 64 | 332 | 3.0 | 8.0 | 0.00 | 0.00 | 0.00 | 87 | 1015.3 |
| 20260503173014 | 64 | 317 | 4.0 | 9.0 | 0.00 | 0.00 | 0.00 | 87 | 1015.3 |
| 20260503172517 | 64 | 311 | 4.0 | 9.0 | 0.00 | 0.00 | 0.00 | 87 | 1015.4 |
| 20260503172013 | 64 | 308 | 3.0 | 8.0 | 0.00 | 0.00 | 0.00 | 87 | 1015.5 |
| 20260503171511 | 64 | 342 | 3.0 | 6.0 | 0.00 | 0.00 | 0.00 | 87 | 1015.5 |
| 20260503171013 | 64 | 289 | 2.0 | 6.0 | 0.00 | 0.00 | 0.00 | 87 | 1015.6 |
| 20260503170512 | 64 | 323 | 3.0 | 5.0 | 0.00 | 0.00 | 0.00 | 87 | 1015.6 |
| 20260503150556 | 65 | 298 | 0.0 | 3.0 | 0.00 | 0.00 | 0.00 | 84 | 1016.4 |
| 20260503131044 | 66 | 289 | 2.0 | 5.0 | 0.00 | 0.00 | 0.00 | 83 | 1017.4 |
| 20260503130544 | 66 | 329 | 1.0 | 8.0 | 0.00 | 0.00 | 0.00 | 82 | 1017.5 |
| 20260503110541 | 67 | 5 | 1.0 | 6.0 | 0.00 | 0.00 | 0.00 | 80 | 1018.0 |
| 20260503081538 | 70 | 276 | 2.0 | 8.0 | 0.00 | 0.00 | 0.00 | 76 | 1017.6 |
| 20260503081034 | 70 | 110 | 1.0 | 8.0 | 0.00 | 0.00 | 0.00 | 76 | 1017.6 |
| 20260503080537 | 70 | 128 | 2.0 | 8.0 | 0.00 | 0.00 | 0.00 | 76 | 1017.6 |
| 20260503072533 | 71 | 18 | 1.0 | 6.0 | 0.00 | 0.00 | 0.00 | 76 | 1017.3 |
| 20260503072035 | 71 | 5 | 1.0 | 6.0 | 0.00 | 0.00 | 0.00 | 76 | 1017.3 |
| 20260503071552 | 71 | 360 | 1.0 | 10.0 | 0.00 | 0.00 | 0.00 | 76 | 1017.3 |
| 20260503071032 | 71 | 71 | 3.0 | 10.0 | 0.00 | 0.00 | 0.00 | 76 | 1017.3 |
| 20260503070532 | 72 | 138 | 1.0 | 8.0 | 0.00 | 0.00 | 0.00 | 75 | 1017.3 |
| 20260503055027 | 75 | 18 | 0.0 | 5.0 | 0.00 | 0.00 | 0.00 | 64 | 1017.5 |
| 20260503054529 | 75 | 275 | 1.0 | 5.0 | 0.00 | 0.00 | 0.00 | 66 | 1017.5 |
| 20260503054027 | 75 | 21 | 1.0 | 3.0 | 0.00 | 0.00 | 0.00 | 67 | 1017.5 |
| 20260503053528 | 76 | 163 | 0.0 | 9.0 | 0.00 | 0.00 | 0.00 | 67 | 1017.5 |
| 20260503053035 | 76 | 24 | 1.0 | 9.0 | 0.00 | 0.00 | 0.00 | 68 | 1017.6 |
| 20260503052526 | 76 | 188 | 1.0 | 6.0 | 0.00 | 0.00 | 0.00 | 67 | 1017.6 |
| 20260503052028 | 76 | 68 | 1.0 | 6.0 | 0.00 | 0.00 | 0.00 | 66 | 1017.6 |
| 20260503051529 | 76 | 23 | 1.0 | 4.0 | 0.00 | 0.00 | 0.00 | 66 | 1017.6 |
| 20260503051025 | 76 | 24 | 2.0 | 4.0 | 0.00 | 0.00 | 0.00 | 65 | 1017.8 |
| 20260503050524 | 77 | 55 | 1.0 | 3.0 | 0.00 | 0.00 | 0.00 | 64 | 1017.7 |
| 20260503050023 | 77 | 134 | 1.0 | 4.0 | 0.00 | 0.00 | 0.00 | 64 | 1017.7 |
| 20260503045523 | 78 | 294 | 2.0 | 4.0 | 0.00 | 0.00 | 0.00 | 62 | 1017.8 |
| 20260503045023 | 78 | 63 | 1.0 | 6.0 | 0.00 | 0.00 | 0.00 | 59 | 1017.8 |
| 20260503044541 | 79 | 331 | 1.0 | 6.0 | 0.00 | 0.00 | 0.00 | 55 | 1017.9 |
| 20260503044026 | 79 | 267 | 2.0 | 11.0 | 0.00 | 0.00 | 0.00 | 51 | 1017.9 |
| 20260503043521 | 79 | 309 | 4.0 | 11.0 | 0.00 | 0.00 | 0.00 | 50 | 1017.8 |
| 20260503043037 | 79 | 51 | 2.0 | 8.0 | 0.00 | 0.00 | 0.00 | 51 | 1017.8 |
| 20260503042520 | 79 | 254 | 2.0 | 9.0 | 0.00 | 0.00 | 0.00 | 51 | 1017.9 |
| 20260503042020 | 80 | 333 | 2.0 | 9.0 | 0.00 | 0.00 | 0.00 | 52 | 1018.0 |
| 20260503041520 | 80 | 263 | 1.0 | 7.0 | 0.00 | 0.00 | 0.00 | 53 | 1018.0 |
| 20260503041019 | 80 | 254 | 1.0 | 7.0 | 0.00 | 0.00 | 0.00 | 52 | 1018.1 |
| 20260503040519 | 80 | 172 | 1.0 | 7.0 | 0.00 | 0.00 | 0.00 | 50 | 1018.0 |
| 20260503040018 | 80 | 173 | 1.0 | 9.0 | 0.00 | 0.00 | 0.00 | 50 | 1018.0 |
| 20260503035517 | 80 | 163 | 4.0 | 9.0 | 0.00 | 0.00 | 0.00 | 50 | 1018.1 |
| 20260503035016 | 80 | 173 | 1.0 | 6.0 | 0.00 | 0.00 | 0.00 | 54 | 1018.1 |